Preview of NWS' New Version of Forecast
This preview is not operational and should not be used for support decisions.

Regional Weather Roundup (RWR)

Issued by National Weather Service (NWS)

                            
000
ASUS43 KDMX 171506
RWRIA 

WEATHER ROUNDUP FOR IOWA
NATIONAL WEATHER SERVICE DES MOINES IA
900 AM CST SUN FEB 17 2019

NOTE: "FAIR" INDICATES FEW OR NO CLOUDS BELOW 12,000 FEET WITH NO
SIGNIFICANT WEATHER AND/OR OBSTRUCTIONS TO VISIBILITY.

* - THESE STATIONS ARE NOT NWS STATIONS...THUS NOT UNDER NWS
QUALITY CONTROL.  THEY ALSO DO NOT REPORT WEATHER SUCH 
AS PRECIPITATION OR FOG.  

IAZ001>003-012>014-020>022-031>034-043>046-171600-
   NORTHWEST IOWA
  
CITY           SKY/WX    TMP DP  RH WIND       PRES   REMARKS
CARROLL *      LGT SNOW  19  21 100 N12       29.82S VSB 1   WCI   7  
CHEROKEE *     LGT SNOW  19  17  92 NE10      29.87R WCI   7          
DENISON *      LGT SNOW  19  18  93 NE14      29.84R VSB 1   WCI   6  
LE MARS *      LGT SNOW  18  16  93 N10       29.89R WCI   6          
ORANGE CITY *  LGT SNOW  19  16  86 NE7       29.87R WCI  10          
SHELDON *      LGT SNOW  16  16 100 NE18      29.87R WCI  -1          
SIOUX CITY     LGT SNOW  19  15  84 N10       29.89R FOG     WCI   7  
SPENCER        LGT SNOW  18  14  84 NE16      29.88R FOG     WCI   3  
STORM LAKE *   SNOW      18  18 100 NE14      29.84R VSB 1/2 WCI   4  
$$
 
IAZ055>058-069>071-079>083-090>094-171600-
   SOUTHWEST IOWA
  
CITY           SKY/WX    TMP DP  RH WIND       PRES   REMARKS
ATLANTIC *     MIX PCPN  23  23 100 N9        29.80S WCI  13          
AUDUBON *      LGT SNOW  21  19  93 CALM      29.80S                  
CLARINDA *     CLOUDY    23  21  93 NW9       29.82S WCI  13          
COUNCIL BLFS * LGT SNOW  19  19 100 NW10      29.82R WCI   8          
CRESTON *      LGT SNOW  25  25 100 CALM      29.77S                  
HARLAN  *      LGT SNOW  21  21 100 N9        29.81S WCI  11          
LAMONI         LGT SNOW  26  24  92 NE6       29.76R FOG     WCI  19  
RED OAK *      FLURRIES  23  23 100 NW8       29.81R WCI  14          
SHENANDOAH *   CLOUDY    19  19 100 W7        29.83R WCI  10          
$$
 
IAZ047>049-059>061-072>074-084-171600-
   CENTRAL IOWA
  
CITY           SKY/WX    TMP DP  RH WIND       PRES   REMARKS
AMES           SNOW      23  21  92 NE8       29.83R VSB 1/2 WCI  14  
ANKENY *       LGT SNOW  23  23 100 NE8       29.83S VSB 1   WCI  14  
BOONE *        LGT SNOW  23  23 100 NE10      29.82R WCI  12          
CHARITON *     LGT SNOW  25  25 100 MISG      29.77S                  
DES MOINES     LGT SNOW  24  22  91 NE8       29.81S VSB 1   WCI  15  
GRINNELL*      LGT SNOW  24  22  93 NE8       29.81S WCI  14          
KNOXVILLE *    LGT SNOW  23  25 100 E6        29.79S WCI  16          
MARSHALLTOWN   SNOW      22  22 100 NE10      29.82S VSB 1/2 WCI  11  
NEWTON *       LGT SNOW  23  23 100 NE8       29.81S WCI  14          
PELLA *        LGT SNOW  25  22  89 E3        29.81F                  
PERRY *        LGT SNOW  24  24  99 CALM      29.82S                  
$$
 
IAZ004>006-015-016-023>025-035-036-171600-
   NORTH CENTRAL IOWA
  
CITY           SKY/WX    TMP DP  RH WIND       PRES   REMARKS
ALGONA *       SNOW      19  19 100 NE12      29.87R VSB 1/2 WCI   7  
CLARION *      CLOUDY    19  18  93 NE17      29.86R FOG     WCI   4  
ESTHERVILLE    LGT SNOW  16  14  92 NE16      29.89R FOG     WCI   1  
FORT DODGE *   LGT SNOW  21  18  88 NE9       29.86R FOG     WCI  11  
MASON CITY     LGT SNOW  18  16  92 NE13      29.89R VSB 3/4 WCI   5  
FOREST CITY *  LGT SNOW  21  18  86 NE9G16    29.88S VSB 1   WCI  11  
IOWA FALLS *   LGT SNOW  22  19  91 NE12      29.86R WCI  10          
$$

IAZ007>011-017>019-026>030-037>042-050>054-066-171600-
   NORTHEAST IOWA
  
CITY           SKY/WX    TMP DP  RH WIND       PRES   REMARKS
CEDAR RAPIDS   LGT SNOW  23  21  92 E12       29.82R VSB 1   WCI  12  
CHARLES CITY * LGT SNOW  19  18  93 NE13      29.88R VSB 1   WCI   7  
CLINTON *      LGT SNOW  25  22  88 E16       29.85R VSB 3/4 WCI  12  
DECORAH *      LGT SNOW  19  19 100 NE10      29.87S VSB 1   WCI   8  
DUBUQUE        LGT SNOW  23  19  85 E8        29.85R FOG     WCI  14  
OELWEIN *      FOG       21  19  93 NE13      29.86R VSB 3/4 WCI   9  
WATERLOO       SNOW      22  19  89 NE10      29.86R VSB 1/2 WCI  11  
$$
 
IAZ064-065-067-068-078-171600-
   EAST CENTRAL IOWA
  
CITY           SKY/WX    TMP DP  RH WIND       PRES   REMARKS
DAVENPORT      LGT SNOW  24  20  84 E12       29.85R FOG     WCI  13  
IOWA CITY      LGT SNOW  25  22  88 E6        29.85R VSB 3/4 WCI  18  
MT. PLEASANT * MIX PCPN  28  27  93 E6        29.80F WCI  22          
MUSCATINE *    SNOW      27  23  86 E5        29.84S VSB 1/2 WCI  21  
QUAD CITIES    SNOW      25  23  92 E10       29.82F VSB 1/2 WCI  15  
$$
 
IAZ062-063-075>077-085>089-095>099-171600-
   SOUTHEAST IOWA
  
CITY           SKY/WX    TMP DP  RH WIND       PRES   REMARKS
BURLINGTON     CLOUDY    25  21  85 E7        29.80S FOG     WCI  17  
FAIRFIELD *    CLOUDY    25  23  93 E9        29.79S WCI  15          
KEOKUK *       CLOUDY    27  25  93 E12       29.79S WCI  16          
OSKALOOSA *    CLOUDY    25  22  91 E10       29.80S FOG     WCI  15  
OTTUMWA        LGT SNOW  25  23  92 E8        29.79S FOG     WCI  16  
WASHINGTON *   CLOUDY    25  25 100 E12       29.82F FOG     WCI  14  
$$

ABBREVIATIONS USED IN REMARKS
   TC - TEMPERATURES IN CELSIUS
  WCI - WIND CHILL INDEX
   HX - HEAT INDEX
  VSB - VISIBILITY  
$$